CDT,Max TemperatureF,Mean TemperatureF,Min TemperatureF,Max Dew PointF,MeanDew PointF,Min DewpointF,Max Humidity, Mean Humidity, Min Humidity, Max Sea Level PressureIn, Mean Sea Level PressureIn, Min Sea Level PressureIn, Max VisibilityMiles, Mean VisibilityMiles, Min VisibilityMiles, Max Wind SpeedMPH, Mean Wind SpeedMPH, Max Gust SpeedMPH,PrecipitationIn, CloudCover, Events, WindDirDegrees
2011-9-1,98,83,68,71,67,63,90,61,31,30.11,30.04,29.98,10,8,4,9,3,13,0.00,0,,121
2011-9-2,99,85,70,70,67,62,90,61,31,30.05,29.98,29.92,10,8,5,12,2,16,0.00,0,,179
2011-9-3,99,85,70,70,67,62,100,66,31,29.93,29.88,29.79,10,8,3,22,4,30,0.43,1,Rain-Thunderstorm,225
2011-9-4,83,76,68,73,70,66,100,83,65,29.92,29.87,29.82,10,4,1,28,6,38,1.25,6,Rain-Thunderstorm,2
2011-9-5,68,64,59,66,55,49,93,75,56,29.88,29.86,29.83,10,9,2,22,13,29,0.26,5,Rain,19
2011-9-6,64,60,55,56,52,50,86,77,67,29.98,29.90,29.84,10,10,8,22,12,29,0.17,7,Rain,358
2011-9-7,71,65,58,59,54,52,87,70,53,30.04,30.00,29.95,10,10,10,18,8,24,0.00,8,,338
2011-9-8,72,63,53,57,54,50,93,71,49,30.03,29.99,29.94,10,10,9,17,6,23,0.00,4,,324
2011-9-9,75,66,56,63,57,55,100,75,50,29.96,29.93,29.90,10,10,6,13,3,16,0.01,5,Rain,269
2011-9-10,82,69,56,61,58,55,100,73,45,30.03,29.99,29.95,10,6,1,36,3,47,0.20,2,Rain-Thunderstorm,198
2011-9-11,83,72,60,65,61,59,100,73,46,30.08,30.04,29.99,10,7,0,15,2,18,0.05,3,Fog-Rain-Thunderstorm,207
2011-9-12,83,70,57,65,61,57,100,73,46,30.14,30.08,30.02,10,4,0,8,1,13,0.01,0,Fog,251
2011-9-13,88,73,58,64,61,57,100,70,39,30.05,30.00,29.94,10,6,0,29,3,30,0.00,0,Fog,200
2011-9-14,83,71,59,67,64,59,100,79,58,30.01,29.91,29.81,10,6,1,20,5,25,0.01,4,Rain-Thunderstorm,177
2011-9-15,69,61,52,61,48,40,93,64,35,30.25,30.13,29.92,10,9,3,23,12,30,0.01,5,Rain,10
2011-9-16,69,61,52,52,46,40,75,62,49,30.26,30.21,30.17,10,10,10,15,5,18,0.00,2,,55
2011-9-17,78,67,56,57,55,52,93,71,46,30.24,30.18,30.14,10,10,10,6,2,7,0.00,2,,78
2011-9-18,80,71,61,67,63,57,93,78,62,30.18,30.12,30.06,10,9,4,14,5,17,T,6,,160
2011-9-19,69,66,62,65,63,63,100,92,84,30.07,30.04,30.00,10,6,1,16,5,24,0.50,7,Rain,178
2011-9-20,75,69,62,68,65,62,100,90,79,30.07,30.03,29.98,10,6,1,8,3,10,T,8,Rain,126
2011-9-21,80,71,62,68,65,60,100,76,51,30.07,30.04,29.99,10,8,4,14,4,16,T,4,,247
2011-9-22,81,69,57,63,59,52,100,73,46,30.11,30.07,30.02,10,5,0,20,6,23,0.18,1,Fog-Thunderstorm,354
2011-9-23,72,63,53,56,53,46,100,72,44,30.14,30.08,30.02,10,8,2,15,5,20,0.40,5,Rain,360
2011-9-24,71,61,50,58,54,50,100,79,57,30.02,29.96,29.89,10,10,8,10,4,16,T,5,,139
2011-9-25,75,67,59,68,61,57,90,76,61,29.95,29.80,29.64,10,10,7,17,7,21,0.49,5,Rain-Thunderstorm,125
2011-9-26,69,60,51,67,56,48,100,75,49,29.91,29.81,29.69,10,10,9,21,5,37,0.14,5,Rain,279
2011-9-27,77,63,48,58,52,47,96,68,40,29.91,29.88,29.83,10,10,6,18,6,25,0.00,3,,230
2011-9-28,76,65,54,61,57,54,93,71,49,29.88,29.86,29.81,10,9,2,15,4,17,0.00,4,,256
2011-9-29,82,70,57,61,58,44,100,76,39,29.91,29.87,29.80,10,7,1,14,2,17,0.00,1,,259
2011-9-30,69,62,51,44,41,38,74,49,33,30.04,29.98,29.89,10,10,10,21,12,29,0.00,1,,318